When you browse on this site, cookies collect data to enhance your experience and personalize the content and advertising you see.
Visit our Privacy Policy to learn more. By continuing to use the site, you agree to this use of cookies and data.
  • In Hungary
  • List of Countries
  • For 7 days
  • Water Temperature
  • Weather Map
  • News
  • Weather Widgets
  • user-avatar
    Login

    Hourly Weather Pereslovka

    Today, 30 March, Monday

    Time Temperature Precipitation Wind Pressure Humidity
    00:00 -4°C° 0 mm 5 mps 749 mmHg 55%
    01:00 -5°C° 0 mm 5 mps 749 mmHg 54%
    02:00 -5°C° 0 mm 5 mps 749 mmHg 52%
    03:00 -5°C° 0 mm 5 mps 749 mmHg 50%
    04:00 -5°C° 0 mm 5 mps 749 mmHg 49%
    05:00 -5°C° 0 mm 5 mps 749 mmHg 48%
    06:00 -5°C° 0 mm 5 mps 749 mmHg 45%
    07:00 -4°C° 0 mm 5 mps 750 mmHg 43%
    08:00 -4°C° 0 mm 6 mps 750 mmHg 39%
    09:00 -3°C° 0 mm 6 mps 750 mmHg 35%
    10:00 -3°C° 0 mm 6 mps 750 mmHg 30%
    11:00 -2°C° 0 mm 6 mps 750 mmHg 25%
    12:00 -1°C° 0 mm 5 mps 750 mmHg 26%
    13:00 0°C° 0 mm 5 mps 750 mmHg 27%
    14:00 +1°C° 0 mm 5 mps 751 mmHg 27%
    15:00 0°C° 0 mm 5 mps 750 mmHg 29%
    16:00 0°C° 0 mm 5 mps 750 mmHg 31%
    17:00 0°C° 0 mm 4 mps 750 mmHg 32%
    18:00 -1°C° 0 mm 4 mps 751 mmHg 38%
    19:00 -2°C° 0 mm 3 mps 751 mmHg 43%
    20:00 -3°C° 0 mm 2 mps 752 mmHg 48%
    21:00 -3°C° 0 mm 2 mps 752 mmHg 49%
    22:00 -3°C° 0 mm 2 mps 752 mmHg 50%
    23:00 -4°C° 0 mm 2 mps 752 mmHg 51%

    Tomorrow, 31 March, Tuesday

    Time Temperature Precipitation Wind Pressure Humidity
    00:00 -4°C° 0 mm 2 mps 753 mmHg 50%
    01:00 -4°C° 0 mm 2 mps 753 mmHg 50%
    02:00 -4°C° 0 mm 2 mps 753 mmHg 49%
    03:00 -4°C° 0 mm 2 mps 753 mmHg 50%
    04:00 -4°C° 0 mm 2 mps 754 mmHg 51%
    05:00 -4°C° 0 mm 2 mps 754 mmHg 52%
    06:00 -5°C° 0 mm 3 mps 754 mmHg 47%
    07:00 -4°C° 0 mm 3 mps 755 mmHg 42%
    08:00 -4°C° 0 mm 3 mps 755 mmHg 37%
    09:00 -2°C° 0 mm 3 mps 755 mmHg 33%
    10:00 -1°C° 0 mm 3 mps 755 mmHg 28%
    11:00 0°C° 0 mm 3 mps 754 mmHg 23%
    12:00 0°C° 0 mm 3 mps 754 mmHg 23%
    13:00 +1°C° 0 mm 3 mps 754 mmHg 22%
    14:00 +2°C° 0 mm 2 mps 754 mmHg 22%
    15:00 +2°C° 0 mm 2 mps 753 mmHg 23%
    16:00 +2°C° 0 mm 2 mps 753 mmHg 25%
    17:00 +2°C° 0 mm 2 mps 752 mmHg 26%
    18:00 -1°C° 0 mm 2 mps 752 mmHg 30%
    19:00 0°C° 0 mm 1 mps 752 mmHg 34%
    20:00 -1°C° 0 mm 1 mps 752 mmHg 39%
    21:00 -3°C° 0 mm 2 mps 751 mmHg 42%
    22:00 -3°C° 0 mm 2 mps 751 mmHg 46%
    23:00 -4°C° 0 mm 3 mps 750 mmHg 50%

    Day after tomorrow, 1 April, Wednesday

    Time Temperature Precipitation Wind Pressure Humidity
    00:00 -4°C° 0 mm 3 mps 750 mmHg 53%
    01:00 -4°C° 0 mm 4 mps 749 mmHg 56%
    02:00 -3°C° 0 mm 4 mps 749 mmHg 59%
    03:00 -4°C° 0 mm 5 mps 748 mmHg 61%
    04:00 -4°C° 0 mm 5 mps 747 mmHg 63%
    05:00 -4°C° 0 mm 5 mps 746 mmHg 64%
    06:00 -4°C° 0 mm 5 mps 746 mmHg 64%
    07:00 -4°C° 0 mm 6 mps 745 mmHg 64%
    08:00 -3°C° 0 mm 6 mps 745 mmHg 64%
    09:00 -2°C° 0 mm 7 mps 744 mmHg 65%
    10:00 -2°C° 0 mm 7 mps 743 mmHg 67%
    11:00 -1°C° 0 mm 8 mps 743 mmHg 69%
    12:00 0°C° 0 mm 8 mps 743 mmHg 71%
    13:00 0°C° 0 mm 8 mps 742 mmHg 73%
    14:00 +1°C° 0 mm 8 mps 742 mmHg 76%
    15:00 +2°C° 0 mm 7 mps 742 mmHg 78%
    16:00 +1°C° 0 mm 6 mps 741 mmHg 81%
    17:00 +1°C° 0 mm 6 mps 741 mmHg 83%
    18:00 +1°C° 0.1 mm 5 mps 741 mmHg 84%
    19:00 +1°C° 0.1 mm 5 mps 741 mmHg 85%
    20:00 0°C° 0.1 mm 4 mps 741 mmHg 86%
    21:00 0°C° 0 mm 4 mps 741 mmHg 88%
    22:00 0°C° 0 mm 4 mps 741 mmHg 89%
    23:00 0°C° 0 mm 4 mps 741 mmHg 91%

    2 April, Thursday

    Time Temperature Precipitation Wind Pressure Humidity
    00:00 0°C° 0 mm 4 mps 741 mmHg 90%
    01:00 0°C° 0 mm 4 mps 741 mmHg 90%
    02:00 0°C° 0 mm 4 mps 741 mmHg 89%
    03:00 0°C° 0 mm 4 mps 740 mmHg 91%
    04:00 0°C° 0 mm 4 mps 740 mmHg 94%
    05:00 0°C° 0 mm 4 mps 739 mmHg 96%
    06:00 0°C° 0.3 mm 5 mps 739 mmHg 96%
    07:00 0°C° 0.3 mm 5 mps 739 mmHg 96%
    08:00 0°C° 0.3 mm 5 mps 739 mmHg 96%
    09:00 -1°C° 0.3 mm 6 mps 739 mmHg 95%
    10:00 +1°C° 0.3 mm 6 mps 739 mmHg 95%
    11:00 +1°C° 0.3 mm 6 mps 738 mmHg 95%
    12:00 +1°C° 0.1 mm 6 mps 739 mmHg 93%
    13:00 +2°C° 0.1 mm 6 mps 739 mmHg 90%
    14:00 +2°C° 0.1 mm 6 mps 739 mmHg 88%
    15:00 +2°C° 0.1 mm 6 mps 739 mmHg 88%
    16:00 +2°C° 0.1 mm 6 mps 739 mmHg 88%
    17:00 +2°C° 0.1 mm 6 mps 739 mmHg 87%
    18:00 +2°C° 0 mm 6 mps 739 mmHg 86%
    19:00 +2°C° 0 mm 6 mps 739 mmHg 85%
    20:00 +2°C° 0 mm 6 mps 739 mmHg 84%
    21:00 +2°C° 0 mm 6 mps 739 mmHg 84%
    22:00 +1°C° 0 mm 6 mps 739 mmHg 84%
    23:00 +1°C° 0 mm 6 mps 738 mmHg 84%

    3 April, Friday

    Time Temperature Precipitation Wind Pressure Humidity
    00:00 +1°C° 0 mm 6 mps 738 mmHg 84%
    01:00 +1°C° 0 mm 6 mps 738 mmHg 84%
    02:00 +1°C° 0 mm 6 mps 737 mmHg 83%
    03:00 0°C° 0 mm 7 mps 737 mmHg 83%
    04:00 0°C° 0 mm 7 mps 736 mmHg 82%
    05:00 0°C° 0 mm 8 mps 735 mmHg 81%
    06:00 0°C° 0 mm 8 mps 735 mmHg 81%
    07:00 0°C° 0 mm 9 mps 735 mmHg 82%
    08:00 0°C° 0 mm 9 mps 735 mmHg 82%
    09:00 +1°C° 0.2 mm 9 mps 735 mmHg 81%
    10:00 +1°C° 0.2 mm 9 mps 735 mmHg 79%
    11:00 +1°C° 0.2 mm 8 mps 735 mmHg 77%
    12:00 +2°C° 0.2 mm 9 mps 736 mmHg 68%
    13:00 +3°C° 0.2 mm 9 mps 736 mmHg 59%
    14:00 +5°C° 0.2 mm 10 mps 736 mmHg 50%
    15:00 +5°C° 0.1 mm 9 mps 736 mmHg 51%
    16:00 +3°C° 0.1 mm 9 mps 737 mmHg 52%
    17:00 +4°C° 0.1 mm 8 mps 737 mmHg 53%
    18:00 +3°C° 0 mm 7 mps 738 mmHg 57%
    19:00 +2°C° 0 mm 6 mps 739 mmHg 60%
    20:00 +1°C° 0 mm 6 mps 740 mmHg 64%
    21:00 0°C° 0 mm 5 mps 740 mmHg 63%
    22:00 0°C° 0 mm 5 mps 741 mmHg 63%
    23:00 -1°C° 0 mm 5 mps 742 mmHg 63%

    4 April, Saturday

    Time Temperature Precipitation Wind Pressure Humidity
    00:00 -1°C° 0 mm 5 mps 742 mmHg 66%
    01:00 -1°C° 0 mm 5 mps 743 mmHg 69%
    02:00 -2°C° 0 mm 5 mps 743 mmHg 72%
    03:00 -2°C° 0 mm 5 mps 744 mmHg 75%
    04:00 -2°C° 0 mm 4 mps 745 mmHg 78%
    05:00 -2°C° 0 mm 4 mps 745 mmHg 81%
    06:00 -1°C° 0 mm 4 mps 746 mmHg 78%
    07:00 0°C° 0 mm 5 mps 747 mmHg 75%
    08:00 +1°C° 0 mm 5 mps 747 mmHg 72%
    09:00 +2°C° 0.1 mm 5 mps 747 mmHg 66%
    10:00 +3°C° 0.1 mm 6 mps 748 mmHg 59%
    11:00 +4°C° 0.1 mm 7 mps 748 mmHg 53%
    12:00 +4°C° 0.2 mm 7 mps 748 mmHg 51%
    13:00 +4°C° 0.2 mm 7 mps 748 mmHg 49%
    14:00 +5°C° 0.2 mm 7 mps 748 mmHg 47%
    15:00 +4°C° 0.2 mm 7 mps 749 mmHg 48%
    16:00 +4°C° 0.2 mm 7 mps 749 mmHg 49%
    17:00 +3°C° 0.2 mm 7 mps 750 mmHg 49%
    18:00 +2°C° 0 mm 6 mps 751 mmHg 53%
    19:00 +1°C° 0 mm 5 mps 752 mmHg 57%
    20:00 -1°C° 0 mm 4 mps 753 mmHg 61%
    21:00 -1°C° 0 mm 4 mps 754 mmHg 66%
    22:00 -2°C° 0 mm 4 mps 755 mmHg 72%
    23:00 -2°C° 0 mm 3 mps 756 mmHg 77%
    Show more